AirNav   Air Wisconsin Up To $57,000 Bonus
 
 358 users online  

KBNG Banning Municipal Airport
Banning, California, USA

GOING TO BANNING?


FAA INFORMATION EFFECTIVE 09 SEPTEMBER 2021

Location

FAA Identifier: BNG
Lat/Long: 33-55-21.2000N 116-51-03.5000W
33-55.353333N 116-51.058333W
33.9225556,-116.8509722
(estimated)
Elevation: 2222.4 ft. / 677.4 m (surveyed)
Variation: 14E (1985)
From city: 1 mile SE of BANNING, CA
Time zone: UTC -7 (UTC -8 during Standard Time)
Zip code: 92220

Airport Operations

Airport use: Open to the public
Activation date: 04/1940
Control tower: no
ARTCC: LOS ANGELES CENTER
FSS: RIVERSIDE FLIGHT SERVICE STATION
NOTAMs facility: RAL (NOTAM-D service available)
Attendance: MON-FRI 0900-1530
FOR ARPT ATTENDANT CALL (951) 922-3320.
Wind indicator: lighted
Segmented circle: yes
Lights: ACTVT MIRL RWY 08/26 - CTAF.
Beacon: white-green (lighted land airport)
Operates sunset to sunrise.

Airport Communications

CTAF/UNICOM: 122.8
WX AWOS-3: 134.625 (951-922-4674)
WX AWOS-3PT at HMT (14 nm SW): 118.375 (951-925-6886)
WX ASOS at PSP (18 nm E): PHONE 760-322-7597

Nearby radio navigation aids

VOR radial/distance  VOR name  Freq  Var
HDFr048/(18.8)HOMELAND VOR113.4014E
PSPr266/21.2PALM SPRINGS VORTAC115.5013E
RALr080/(29.9)RIVERSIDE VOR112.4014E
PDZr075/33.8PARADISE VORTAC112.2015E
TRMr284/38.7THERMAL VORTAC116.2013E

Airport Services

Fuel available: 100LL
100LL:FUEL AVBL WITH 24 HR SELF SVC CREDIT CARD. FUEL APN NOT LEVEL AND ACFT MAY NOT FILL COMPLETELY.
Parking: tiedowns
Airframe service: NONE
Powerplant service: NONE
Bottled oxygen: NONE
Bulk oxygen: NONE

Runway Information

Runway 8/26

Dimensions: 4955 x 100 ft. / 1510 x 30 m
Surface: asphalt, in fair condition
Weight bearing capacity: 
Single wheel: 12.5
Runway edge lights: medium intensity
RUNWAY 8  RUNWAY 26
Latitude: 33-55.356430N33-55.349927N
Longitude: 116-51.548577W116-50.568532W
Elevation: 2222.4 ft.2103.8 ft.
Traffic pattern: leftright
Markings: basic, in fair conditionbasic, in fair condition
Visual slope indicator: 2-light PAPI on left (3.50 degrees glide path)
Touchdown point: yes, no lightsyes, no lights

Airport Ownership and Management from official FAA records

Ownership: Publicly-owned
Owner: CITY OF BANNING
P.O. BOX 998
BANNING, CA 92220
Phone (951) 922-3105
Manager: CARL SZOYKA
176 EAST LINCOLN STREET, PO BOX 998
BANNING, CA 92220-0998
Phone 951-922-3286

Airport Operational Statistics

Aircraft based on the field: 16
Single engine airplanes: 13
Multi engine airplanes: 2
Helicopters: 1
    
Aircraft operations: avg 105/week *
75% transient general aviation
25% local general aviation
* for 12-month period ending 31 December 2020

Additional Remarks

NO INTERSECTION TAKEOFFS TO THE WEST.
RY 08/26 NO STRAIGHT-IN LANDINGS.
RWY 26 AFTER TAKEOFF AVOID OVERFLYING HOUSES 4 MILES WEST.
FOR CD CTC LOS ANGELES ARTCC AT 661-575-2079.

Instrument Procedures

There are no published instrument procedures at KBNG.

Some nearby airports with instrument procedures:

KHMT - Hemet-Ryan Airport (14 nm SW)
KREI - Redlands Municipal Airport (18 nm NW)
KPSP - Palm Springs International Airport (18 nm E)
KRIV - March Air Reserve Base (20 nm W)
L35 - Big Bear City Airport (20 nm N)
 
Loc | Ops | Rwys | IFR | FBO | Links
Com | Nav | Svcs | Stats | Notes

San Bernardino International Airport Authority
 
Area around KBNG (Banning Municipal Airport)
 
Road maps at: MapQuest Bing Google
 
Aerial photo
WARNING: Photo may not be current or correct
Aerial photo of KBNG (Banning Municipal Airport)
Photo taken 30-Oct-2013
looking southwest.

Do you have a better or more recent aerial photo of Banning Municipal Airport that you would like to share? If so, please send us your photo.

 
Sectional chart

 
Airport distance calculator
Flying to Banning Municipal Airport? Find the distance to fly.

From to KBNG

Sunrise and sunset
Times for 28-Sep-2021
 Local
(UTC-7)
 Zulu
(UTC)
Morning civil twilight06:1613:16
Sunrise06:4113:41
Sunset18:3501:35
Evening civil twilight19:0002:00

Current date and time
Zulu (UTC)  28-Sep-2021 09:30:51
Local (UTC-7)  28-Sep-2021 02:30:51
 
METAR
KHMT 
14nm SW 
280915Z AUTO 26005KT 10SM OVC013 15/15 A2998 RMK AO2 T01550154
KPSP 
19nm E 
280853Z AUTO 28003KT 10SM CLR 23/13 A2981 RMK AO2 SLP092 T02330128 58006
KL35 
20nm N 
280915Z AUTO 00000KT 10SM CLR 10/01 A3015 RMK AO2
KRIV 
21nm W 
280858Z 30003KT 3SM BR SCT007 OVC011 17/15 A2999 RMK AO2A SLPNO ALSTG ESTMD
KSBD 
22nm NW 
280920Z AUTO 24005KT 7SM OVC015 18/13 A2998 RMK AO2 T01800128
KF70 
25nm SW 
280915Z AUTO 00000KT 10SM OVC010 15/14 A2998 RMK AO2
TAF
KPSP 
19nm E 
280520Z 2806/2906 32012KT P6SM SKC FM280700 VRB04KT P6SM SKC FM282100 33015G25KT P6SM SKC
KRIV 
21nm W 
280400Z 2804/2910 31006KT 9999 SCT020 QNH3000INS BECMG 2807/2808 15006KT 9999 OVC010 QNH2995INS TEMPO 2810/2815 8000 -DZ BR BKN008 OVC012 BECMG 2815/2816 15006KT 9999 NSW OVC020 QNH2996INS BECMG 2818/2819 31009KT 9999 SCT030 QNH2987INS TEMPO 2821/2901 31012G18KT BECMG 2904/2905 VRB05KT 9999 BKN020 QNH2990INS TEMPO 2905/2910 BKN015 TX25/2822Z TN16/2813Z
KSBD 
22nm NW 
280520Z 2806/2906 24005KT P6SM BKN025 FM280800 VRB04KT P6SM OVC015 FM281700 25005KT P6SM BKN022 FM282000 25010KT P6SM SKC FM290400 VRB04KT P6SM SCT020
NOTAMs
Click for the latest NOTAMs
NOTAMs are issued by the DoD/FAA and will open in a separate window not controlled by AirNav.

 

 
 

FBO, Fuel Providers, and Aircraft Ground Support

  
 Business Name 
 
 Contact 
 
 Services / Description 
 
Fuel Prices
 
Comments
  
City of Banning 951-922-3320
no information available

If you are affiliated with City of Banning and would like to show here your services, contact info, web link, logo, and more, click here
100LL
PS $5.02 
 Updated 17-Sep-2021
 
   1 read write
PS=Pump service
Update Fuel Prices
 

Would you like to see your business listed on this page?

 If your business provides an interesting product or service to pilots, flight crews, aircraft, or users of the Banning Municipal Airport, you should consider listing it here.  To start the listing process, click on the button below
 
Add a business
 

Other Pages about Banning Municipal Airport

www.ci.banning.ca.us/...
 
Update a link
 
Copyright © AirNav, LLC. All rights reserved. Privacy Policy  Contact